Location: Recife
(8.0585°S, 34.8848°W)
Time: 10:16:20
(UTC-03:00)

Courier 1B Rocket - Pass Details

Date: 18 April 2026
Orbit: 920 x 1201 km, 28.2° (Epoch: 13 May)

Event Time Altitude Azimuth Distance (km) Brightness Sun altitude
Rises 11:12:05 0° 230° (SW) 3,927 8.0 70.9°
Reaches altitude 10° 11:15:05 10° 221° (SW) 3,009 7.5 71.0°
Maximum altitude 11:21:50 35° 157° (SSE) 1,787 6.7 71.0°
Drops below altitude 10° 11:28:49 10° 93° (E) 3,122 7.7 70.8°
Sets 11:31:58 0° 85° (E) 4,092 8.2 70.7°
